Domov               UVHVVR             MKGP            O straneh              
ZDRAVSTVENO VARSTVO RASTLIN
  MREŽA AGROMET. POSTAJ
 ► PROGNOSTIČNA OBVESTILA
AGROMETEOROLOŠKI PODATKI -
ARSO
OBVLADOVANJE TVEGANJ ZARADI
NEUGODNIH VREMENSKIH RAZMER
  ► NARAVNE NESREČE
  ► SUŠA/MOČA
  ► NAMAKANJE
  ► ŽLED (gozdarstvo)
KARTOGRAFSKI PRIKAZI
SPLETNE POVEZAVE
PROJEKTI IN PUBLIKACIJE

AGROMETEOROLOŠKA MREŽA: VREMENSKE POSTAJE IN FENOLOŠKA OPAZOVANJA

Pregled podatkov za lokacijo Kasaze (Mirosan), meteorološka postaja 27394

Pregled senzorjev na lokaciji

ID Ime Zadnja
vrednost
Datum
zadnje
spremembe
Tip
senzorja
521 Temperatura 2 m (°C) 3,76 °C 20.1.2018 11:30 Generic -40 - +60 °C
522 Relativna vlaga 2 m (% RH) 77,22 % RH 20.1.2018 11:30 Generic 0 - 100 %
546 Omočenost lista (U) 0 U 20.1.2018 11:30 A730WET
4028 Padavine (mm) 0 mm 20.1.2018 11:30 Generic 0.2 mm

Pregled podatkov zadnjih 24 ur

Zap.
št.
Datum in čas Kasaze (Mirosan)
Omočenost
lista
Padavine Relativna
vlaga
2
m
Temperatura
2
m
0 20.1.2018 11:30 0 0 77,22 3,76
1 20.1.2018 11:00 0 0 75,65 3,44
2 20.1.2018 10:30 0 0 77,09 3,3
3 20.1.2018 10:00 1 0 77,31 2,78
4 20.1.2018 09:30 5 0 81,25 1,93
5 20.1.2018 09:00 6 0 85,84 1,22
6 20.1.2018 08:30 6 0 90,82 0,46
7 20.1.2018 08:00 4 0 95,09 0,29
8 20.1.2018 07:30 3 0 98,34 -0,22
9 20.1.2018 07:00 3 0 98,36 -0,2
10 20.1.2018 06:30 2 0 98,29 0,02
11 20.1.2018 06:00 2 0 98,49 0,22
12 20.1.2018 05:30 2 0 98,22 0,15
13 20.1.2018 05:00 2 0 98,36 0,34
14 20.1.2018 04:30 1 0 98,22 0,61
15 20.1.2018 04:00 1 0 98,19 1,34
16 20.1.2018 03:30 1 0 97,9 1,32
17 20.1.2018 03:00 0 0 96,87 1,49
18 20.1.2018 02:30 1 0 97,31 1,59
19 20.1.2018 02:00 2 0 98,75 1,49
20 20.1.2018 01:30 2 0 98,63 1,54
21 20.1.2018 01:00 2 0 99 1,47
22 20.1.2018 00:30 2 0 99,05 1,32
23 20.1.2018 00:00 2 0 98,93 1,39
24 19.1.2018 23:30 3 0 98,88 1,27
25 19.1.2018 23:00 3 0 98,88 1,22
26 19.1.2018 22:30 3 0 98,83 1,27
27 19.1.2018 22:00 3 0 98,39 1,54
28 19.1.2018 21:30 3 0 98,63 1,86
29 19.1.2018 21:00 3 0 98,61 1,76
30 19.1.2018 20:30 3 0 98,32 1,49
31 19.1.2018 20:00 3 0 98,12 1,81
32 19.1.2018 19:30 3 0,2 97,85 2,15
33 19.1.2018 19:00 3 0 98,07 2,22
34 19.1.2018 18:30 2 0 97,83 2,3
35 19.1.2018 18:00 2 0 97,88 2,39
36 19.1.2018 17:30 2 0 97,73 2,44
37 19.1.2018 17:00 1 0 97,63 2,61
38 19.1.2018 16:30 2 0 97,29 2,74
39 19.1.2018 16:00 2 0 96,97 2,69
40 19.1.2018 15:30 2 0,2 96,92 2,56
41 19.1.2018 15:00 2 0,2 97,02 2,54
42 19.1.2018 14:30 2 1,2 96,78 2,59
43 19.1.2018 14:00 2 1,8 96,34 2,88
44 19.1.2018 13:30 4 1,8 93,21 3,42
45 19.1.2018 13:00 4 2 92,67 4,2
46 19.1.2018 12:30 3 1,6 93,65 4,59
© 2011 Ministrstvo za kmetijstvo, gozdarstvo in prehrano. Vse pravice pridržane.